Terminal Aerodrome Forecast
Issued by NWS Tampa Bay Area, FL

Home | Current Version | Previous Version | Text Only | Print | Product List | Glossary On
Versions: 1 2 3 4 5 6 7 8 9 10 11 12 13 14 15 16 17 18 19 20
000
FTUS42 KTBW 280300 AAA
TAFTPA
TAF AMD
KTPA 280301Z 2803/2824 VRB03KT P6SM SCT025 BKN040
     FM280600 00000KT 4SM BR SCT005 BKN020
      TEMPO 2808/2812 1SM BR BKN005
     FM281200 00000KT 1SM BR OVC005
     FM281400 VRB03KT 5SM BR SCT005 BKN015
     FM281700 22006KT P6SM BKN025=

USA.gov is the U.S. government's official web portal to all federal, state and local government web resources and services.